Station APXF1 - East Bay, Apalachicola Reserve, FL Image indicating link to RSS feed of recent meteorological observations for station APXF1


Conditions at APXF1 as of
(1:00 pm EDT)
1700 GMT on 04/18/2024:
     

Click on the graph icon in the table below to see a time series plot of the last five days of that observation.

5-day plot - Wind Direction Wind Direction (WDIR): S ( 170 deg true )
5-day plot - Wind Speed Wind Speed (WSPD): 4.1 kts
5-day plot - Atmospheric Pressure Atmospheric Pressure (PRES):30.15 in
5-day plot - Pressure Tendency Pressure Tendency (PTDY):+0.00 in ( Steady )
5-day plot - Air Temperature Air Temperature (ATMP): 74.7 °F
5-day plot - Dew Point Dew Point (DEWP): 67.5 °F
5-day plot -  Wind Speed, Wind Gust and Atmospheric Pressure Combined plot of Wind Speed, Gust, and Air Pressure
Previous observations
TIME
(EDT)
5-day plot - Wind Direction
WDIR
 
5-day plot - Wind Speed
WSPD
kts
5-day plot - Wind Gust
GST
kts
5-day plot - Wave Height
WVHT
ft
5-day plot - Dominant Wave Period
DPD
sec
5-day plot - Average Wave Period
APD
sec
5-day plot - Mean Wave Direction
MWD
 
5-day plot - Atmospheric Pressure
PRES
in
5-day plot - Pressure Tendency
PTDY
in
5-day plot - Air Temperature
ATMP
°F
5-day plot - Water Temperature
WTMP
°F
5-day plot - Dew Point
DEWP
°F
5-day plot - Salinity
SAL
psu
5-day plot - Visibility
VIS
nmi
5-day plot - Tide (above MLLW)
TIDE
ft
2024-04-18 12:45 pm S 4.1-----30.15- 74.5- 66.9---
2024-04-18 12:30 pmSSE 4.1-----30.15- 74.8- 67.3---
2024-04-18 12:15 pmSSE 4.1-----30.15- 74.8- 66.6---
2024-04-18 12:00 pm W 4.1-----30.15+0.00 73.6- 67.1---
2024-04-18 11:45 am W 5.1-----30.15- 73.0- 66.9---
2024-04-18 11:30 amWSW 6.0-----30.15- 73.4- 67.6---
2024-04-18 11:15 amSSW 4.1-----30.15- 74.1- 68.0---
2024-04-18 11:00 amWSW 2.9-----30.15+0.03 72.3- 67.6---
2024-04-18 10:45 am W 1.0-----30.15- 73.9- 68.9---
2024-04-18 10:30 am NW 1.9-----30.15- 77.7- 69.4---
2024-04-18 10:15 amWNW 4.1-----30.15- 75.9- 67.3---
2024-04-18 10:00 am NE 1.0-----30.15+0.03 71.4- 70.2---
2024-04-18 09:45 am NW 1.9-----30.15- 73.4- 71.6---
2024-04-18 09:30 am NW 2.9-----30.18- 74.5- 71.8---
2024-04-18 09:15 am W 1.9-----30.18- 74.5- 70.5---
2024-04-18 09:00 amNNE 4.1-----30.15+0.06 68.2- 67.6---
2024-04-18 08:45 am E 1.9-----30.15- 68.0- 67.5---
2024-04-18 08:30 am E 1.9-----30.15- 68.5- 68.0---
2024-04-18 08:15 amENE 1.9-----30.15- 69.6- 68.7---
2024-04-18 08:00 am SE 1.0-----30.12+0.00 64.6- 64.2---
2024-04-18 07:45 am E 1.0-----30.15- 64.2- 63.9---
2024-04-18 07:30 amNNE 4.1-----30.15- 67.8- 67.8---
2024-04-18 07:15 am N 5.1-----30.15- 68.2- 67.8---
2024-04-18 07:00 amSSE 1.0-----30.12+0.03 66.4- 66.0---
2024-04-18 06:45 am S 1.0-----30.12- 66.2- 65.8---
2024-04-18 06:30 am- 0.0-----30.12- 66.0- 65.7---
2024-04-18 06:15 am- 0.0-----30.12- 65.7- 65.3---
2024-04-18 06:00 am E 1.0-----30.09+0.00 66.2- 65.7---
2024-04-18 05:45 am SE 1.0-----30.12- 66.7- 66.2---
2024-04-18 05:30 am E 1.9-----30.12- 65.8- 65.3---
2024-04-18 05:15 amESE 1.9-----30.12- 66.0- 65.7---
2024-04-18 05:00 am NE 4.1-----30.12+0.00 69.1- 68.5---
2024-04-18 04:45 amSSE 1.9-----30.12- 68.0- 67.5---
2024-04-18 04:30 amSSE 1.0-----30.12- 67.3- 66.7---
2024-04-18 04:15 amSSE 1.0-----30.09- 66.7- 66.2---
2024-04-18 04:00 am N 6.0-----30.09-0.03 69.3- 68.4---
2024-04-18 03:45 am N 5.1-----30.09- 69.3- 68.7---
2024-04-18 03:30 am N 5.1-----30.09- 69.3- 68.7---
2024-04-18 03:15 am NE 4.1-----30.12- 69.1- 68.5---
2024-04-18 03:00 am E 2.9-----30.09-0.03 69.3- 68.2---
2024-04-18 02:45 amESE 1.9-----30.09- 68.4- 67.5---
2024-04-18 02:30 amNNE 2.9-----30.09- 68.9- 68.0---
2024-04-18 02:15 amNNE 5.1-----30.09- 69.4- 68.5---
2024-04-18 02:00 amENE 1.9-----30.12-0.03 70.9- 69.4---
2024-04-18 01:45 amESE 1.9-----30.09- 69.4- 68.0---
2024-04-18 01:30 amESE 1.9-----30.09- 69.3- 68.2---
2024-04-18 01:15 am E 1.9-----30.09- 69.1- 68.0---
2024-04-18 01:00 amWSW 1.0-----30.12-0.03 70.9- 69.1---
2024-04-18 12:45 amSSW 1.0-----30.12- 70.9- 69.1---
2024-04-18 12:30 amESE 1.9-----30.12- 70.5- 68.7---
2024-04-18 12:15 am E 1.9-----30.09- 70.2- 68.7---
2024-04-18 12:00 am S 2.9-----30.12+0.00 70.9- 68.7---
2024-04-17 11:45 pm S 2.9-----30.12- 71.1- 68.9---
2024-04-17 11:30 pmSSW 2.9-----30.12- 71.1- 68.9---
2024-04-17 11:15 pm S 1.9-----30.12- 71.1- 69.3---
2024-04-17 11:00 pm S 1.9-----30.15+0.03 70.7- 68.4---
2024-04-17 10:45 pmSSW 2.9-----30.12- 70.9- 68.7---
2024-04-17 10:30 pmSSE 1.9-----30.15- 71.1- 68.7---
2024-04-17 10:15 pmSSE 2.9-----30.12- 70.7- 68.4---
2024-04-17 10:00 pm S 1.9-----30.15+0.03 71.2- 68.5---
2024-04-17 09:45 pmSSE 1.0-----30.15- 70.9- 68.2---
2024-04-17 09:30 pm S 1.9-----30.15- 70.7- 68.4---
2024-04-17 09:15 pm S 1.9-----30.15- 70.7- 68.4---
2024-04-17 09:00 pm S 1.9-----30.12+0.00 72.0- 68.4---
2024-04-17 08:45 pmSSW 1.9-----30.15- 71.6- 68.2---
2024-04-17 08:30 pm S 1.9-----30.15- 71.4- 68.4---
2024-04-17 08:15 pm S 1.0-----30.15- 71.2- 68.5---
2024-04-17 08:00 pmWSW 4.1-----30.12-0.03 73.9- 68.9---
2024-04-17 07:45 pm SW 2.9-----30.12- 73.4- 68.7---
2024-04-17 07:30 pm S 2.9-----30.12- 72.9- 68.5---
2024-04-17 07:15 pm S 1.9-----30.12- 72.3- 68.4---
2024-04-17 07:00 pmWSW 5.1-----30.12-0.03 73.9- 68.5---
2024-04-17 06:45 pm SW 4.1-----30.12- 74.5- 68.4---
2024-04-17 06:30 pmWSW 7.0-----30.12- 74.5- 68.7---
2024-04-17 06:15 pmWSW 5.1-----30.12- 74.1- 68.7---
2024-04-17 06:00 pmWSW 7.0-----30.12-0.06 73.9- 68.2---
2024-04-17 05:45 pmWSW 7.0-----30.12- 73.9- 68.5---
2024-04-17 05:30 pmWSW 7.0-----30.12- 73.9- 68.5---
2024-04-17 05:15 pmWSW 6.0-----30.12- 73.6- 68.2---
2024-04-17 05:00 pmSSW 4.1-----30.15-0.03 74.7- 68.5---
2024-04-17 04:45 pm SW 5.1-----30.15- 74.5- 68.4---
2024-04-17 04:30 pmWSW 7.0-----30.15- 73.8- 68.4---
2024-04-17 04:15 pmWSW 6.0-----30.12- 74.3- 68.5---
2024-04-17 04:00 pmSSW 5.1-----30.15-0.03 74.8- 68.0---
2024-04-17 03:45 pmSSW 5.1-----30.15- 75.0- 68.5---
2024-04-17 03:30 pm S 4.1-----30.15- 74.8- 68.4---
2024-04-17 03:15 pm S 5.1-----30.15- 75.0- 68.5---
2024-04-17 03:00 pm S 5.1-----30.18-0.03 75.0- 68.2---
2024-04-17 02:45 pm S 6.0-----30.15- 75.0- 68.2---
2024-04-17 02:30 pm S 5.1-----30.15- 75.2- 68.4---
2024-04-17 02:15 pmSSW 5.1-----30.15- 74.7- 68.2---
2024-04-17 02:00 pmSSE 7.0-----30.18+0.00 74.8- 68.0---
2024-04-17 01:45 pmSSE 7.0-----30.18- 74.7- 67.8---
2024-04-17 01:30 pm S 6.0-----30.18- 74.8- 68.0---
2024-04-17 01:15 pmSSE 6.0-----30.18- 74.8- 68.0---
2024-04-17 01:00 pmSSE 7.0-----30.18+0.00 74.3- 67.5---